User: anonymous   Login
Location: Caltech
(34.1382°N, 118.1253°W)
Time: 18:51:59
(UTC-07:00)
Language:

Iridium 65 - Orbit

View from above orbital plane
View from above orbital plane
View from above satellite
View from above satellite

Ground track
Ground track

The orbit data is extracted from the following two-line orbital elements,

1 25288U 98021D   15181.47604131  .00000023  00000-0  13200-5 0  9993
2 25288 086.3976 163.8825 0002372 091.3032 021.3659 14.34217073902145
Epoch (UTC): 30 June 2015 11:25:29
Eccentricity: 0.0002372
inclination: 86.3976°
perigee height: 776 km
apogee height: 779 km
right ascension of ascending node: 163.8825°
argument of perigee: 91.3032°
revolutions per day: 14.34217073
mean anomaly at epoch: 21.3659°
orbit number at epoch: 90214

The dashed part of the orbit path shows where the satellite is in the earth's shadow,  

DLR